Tracking 19634 objects as of 21-May-2019
HD Live streaming from Space Station
objects crossing your sky now

COSMOS 2126

Track COSMOS 2126 now!
10-day predictions
COSMOS 2126 is classified as:


NORAD ID: 21101
Int'l Code: 1991-009B
Perigee: 1,473.1 km
Apogee: 1,503.5 km
Inclination: 74.0 °
Period: 115.6 minutes
Semi major axis: 7859 km
RCS: 0.7089 m2 (medium)
Launch date: February 12, 1991
Source: Commonwealth of Independent States (former USSR) (CIS)
Launch site: PLESETSK MISSILE AND SPACE COMPLEX (PKMTR)
aabbcc
Your satellite tracking list
Your tracking list is empty




NASA's NSSDC Master Catalog

Two Line Element Set (TLE):
1 21101U 91009B   19140.82107633 -.00000008 +00000-0 +54921-4 0  9993
2 21101 074.0305 253.9479 0019386 318.9517 144.9159 12.46025298285799
Source of the keplerian elements: AFSPC